weather.gov     
National Weather Service

Regional Weather Roundup
NWS Homepage
This page is being discontinued on March 12, 2014.
The same data is available at this site. Please update your bookmarks.
Thank you, and we apologize for the inconvenience.
Please send an email to SR-SRH.Webmaster@noaa.gov with any concerns.


Current Version
Previous Version:    01  02  03  04  05  06  07  08  09  10  11  12  13  14  15  16  17  18  19  20  21  22  23  24  25  26  27  28  29  30  
   31  32  33  34  35  36  37  38  39  40  41  42  43  44  45  46  47  48  49  50  51  52  53  54  55  56  57  
[Printable]
524
ASUS43 KTOP 202159
RWRKS

WEATHER ROUNDUP FOR KANSAS
NATIONAL WEATHER SERVICE GOODLAND KS
500 PM CDT SAT SEP 20 2014

NOTE:  "FAIR" INDICATES FEW OR NO CLOUDS BELOW 12,000 FEET WITH NO
SIGNIFICANT WEATHER AND/OR OBSTRUCTIONS TO VISIBILITY.

KSZ001>006-013>018-027>032-041>047-202300-
NORTHWEST KANSAS

CITY           SKY/WX    TMP DP  RH WIND       PRES   REMARKS
GOODLAND       SUNNY     83  50  31 NE9       30.13R
HAYS           SUNNY     86  66  51 N14G20    29.98S
HILL CITY      SUNNY     89  54  30 NE10G21   30.02S
RUSSELL        MOSUNNY   90  66  45 N8        29.95F
$$

KSZ061>065-074>080-084>089-202300-
SOUTHWEST KANSAS

CITY           SKY/WX    TMP DP  RH WIND       PRES   REMARKS
DODGE CITY     MOSUNNY   88  60  38 S5        29.99S
ELKHART          N/A     90  59  35 NE3         N/A
GARDEN CITY    PTSUNNY   91  58  32 NE12      30.01S
GREAT BEND     PTSUNNY   82  66  57 E12       29.95R THUNDER
LIBERAL        PTSUNNY   91  61  35 SE8       30.01S
PRATT          MOSUNNY   88  55  33 S13       29.98S
$$

KSZ066>073-081>083-090>101-202300-
SOUTHEAST KANSAS

CITY           SKY/WX    TMP DP  RH WIND       PRES   REMARKS
CHANUTE        SUNNY     84  70  62 SW15G26   29.95F
HUTCHINSON     MOSUNNY   92  62  36 SW13      29.94F
NEWTON         PTSUNNY   88  61  40 W12G18    29.98S
PARSONS        SUNNY     85  72  65 SW7       29.98S
WICHITA INTL   MOSUNNY   93  58  30 W10       29.94F
WICHITA JABRA  MOSUNNY   89  61  38 S12       29.94F
WICHITA MCCONL MOSUNNY   91  59  33 S9        29.95F HAZE
WINFIELD       MOSUNNY   88  67  49 S14       29.96F
$$

KSZ007>012-019>026-033>040-048>060-102>105-202300-
NORTHEAST KANSAS

CITY           SKY/WX    TMP DP  RH WIND       PRES   REMARKS
CONCORDIA      SUNNY     85  68  56 W5        29.95F
EMPORIA        MOSUNNY   88  66  48 SW10G20   29.94R
LAWRENCE       CLOUDY    79  69  71 SW6       29.92F
MANHATTAN      CLOUDY    77  70  79 E15       29.93R
OLATHE IND     CLOUDY    80  69  69 S7        29.95S
OLATHE EXE     CLOUDY    79  70  74 SW6       29.95R
SALINA         PTSUNNY   90  65  43 W6        29.93F
TOPEKA BILLARD LGT RAIN  75  73  93 CALM      29.95R
TOPEKA FORBES  CLOUDY    77  68  73 W5        29.95S
$$




U.S. Dept. of Commerce
NOAA National Weather Service
1325 East West Highway
Silver Spring, MD 20910
E-mail: w-nws.webmaster@noaa.gov
Page last modified: May 16, 2007
NATIONAL WEATHER SERVICE: for Safety, for Work, for Fun - FOR LIFE